Skip Page Navigation
NASA JPL Caltech
NASA Logo - Jet Propulsion Laboratory + View the NASA Portal
+ Center for Near-Earth Object Studies
JPL Home Earth Solar System Stars & Galaxies Technology
JPL Solar System Dynamics
BODIES ORBITS EPHEMERIDES TOOLS PHYSICAL DATA DISCOVERY FAQ SITE MAP
JPL Small-Body Database Browser
Search: [ help ]  
17029 Cuillandre (1999 FM6)
Classification: Main-belt Asteroid          SPK-ID: 2017029
Ephemeris | Orbit Diagram | Orbital Elements | Mission Design | Physical Parameters | Discovery Circumstances ]

[ show orbit diagram ]
Orbital Elements at Epoch 2459200.5 (2020-Dec-17.0) TDB
Reference: JPL 31 (heliocentric ecliptic J2000)
 Element Value Uncertainty (1-sigma)   Units 
e .0609042417452564 3.2624e-08  
a 2.827936221779381 1.0237e-08 au
q 2.655702910487963 9.1075e-08 au
i 1.533832268001162 3.9374e-06 deg
node 202.0860460595099 0.00012339 deg
peri 109.1508285387812 0.00012784 deg
M 99.376176157427 3.3044e-05 deg
tp 2458721.006610931130
(2019-Aug-25.50661093)
0.00015953 TDB
period 1737.012096252732
4.76
9.432e-06
2.582e-08
d
yr
n .2072524427300365 1.1254e-09 deg/d
Q 3.0001695330708 1.0861e-08 au
  Orbit Determination Parameters
   # obs. used (total)      2325  
   data-arc span      13999 days (38.33 yr)  
   first obs. used      1982-11-14  
   last obs. used      2021-03-13  
   planetary ephem.      DE441  
   SB-pert. ephem.      SB441-N16  
   condition code      0  
   norm. resid. RMS      .51031  
   source      ORB  
   producer      Otto Matic  
   solution date      2021-Apr-13 01:51:42  

Additional Information
 Earth MOID = 1.63982 au 
 Jupiter MOID = 2.15268 au 
 T_jup = 3.311 
[ show covariance matrix ]

Ephemeris | Orbit Diagram | Orbital Elements | Mission Design | Physical Parameters | Discovery Circumstances ]

Physical Parameter Table
Parameter Symbol Value Units Sigma Reference Notes
absolute magnitude H 13.61   n/a E2021B10  

17029 Cuillandre           Discovered 1999 Mar. 17 by the OCA-DLR Asteroid Survey at Caussols.
Jean Charles Cuillandre (b. 1968) is a French astronomer whose interest in CCDs has always been very strong. He worked on all the generations of CCD arrays used at the CFHT telescope, including the 12K camera, with which he has produced exquisite color pictures of many celestial objects.
NOTE: some special characters may not display properly (any characters within {} are an attempt to place the proper accent above a character)
Reference: 20020921/MPCPages.arcLast Updated: 2003-10-02

Alternate Designations
 1999 FM6 = 1982 VL5 = 2000 KE57 
Ephemeris | Orbit Diagram | Orbital Elements | Mission Design | Physical Parameters | Discovery Circumstances ]
ABOUT SSD CREDITS/AWARDS PRIVACY/COPYRIGHT GLOSSARY LINKS
FirstGov 2021-Apr-14 18:28 UT
(server date/time)  
NASA Home Page
Site Manager:   Ryan S. Park
Webmaster  Alan B. Chamberlin